Weather History for PATO - April, 2013

Change the Weather History Date:

Sunday, April 7, 2013

  Actual Average Record
Temperature  
Mean Temperature 24 °F -  
Max Temperature 30 °F - - ()
Min Temperature 19 °F - - ()
Degree Days  
Heating Degree Days 40    
Moisture  
Dew Point 20 °F    
Average Humidity 83    
Maximum Humidity 100    
Minimum Humidity 55    
Precipitation  
Precipitation 0.06 in - - ()
Sea Level Pressure  
Sea Level Pressure 29.62 in    
Wind  
Wind Speed 5 mph (WNW)    
Max Wind Speed 13 mph    
Max Gust Speed 22 mph    
Visibility 7 miles    
Events Snow    
T = Trace of Precipitation, MM = Missing Value Source: NWS Daily Summary

Daily Weather History Graph

Daily Weather History Graph

Search for Another Location

Airport or City:

Trip Planner

Search our weather history database for the weather conditions in past years. The results will help you decide how hot, cold, wet, or windy it might be!

Date:

Astronomy

Apr. 07, 2013 Rise Set
Actual Time 6:59 AM AKDT 8:57 PM AKDT
Civil Twilight 6:13 AM AKDT 9:42 PM AKDT
Nautical Twilight 5:15 AM AKDT 10:41 PM AKDT
Astronomical Twilight 4:01 AM AKDT 11:57 PM AKDT
Moon 6:00 AM AKDT (4/7) 6:09 PM AKDT (4/7)
Length of Visible Light 15h 28m
Length of Day
13h 57m
Waning Crescent, 7% of the Moon is Illuminated
Apr 7
Waning Crescent
Apr 10
New
Apr 18
First Quarter
Apr 25
Full
May 2
Last Quarter

Hourly Weather History & Observations

Time (AKDT) Temp. Windchill Dew Point Humidity Pressure Visibility Wind Dir Wind Speed Gust Speed Precip Events Conditions
12:07 AM 28.0 °F 21.7 °F 27.0 °F 96% 29.49 in 2.0 mi WNW 5.8 mph - 0.00 in Snow Light Snow
12:32 AM 28.0 °F 20.8 °F 27.0 °F 96% 29.50 in 1.5 mi WNW 6.9 mph - 0.00 in Snow Light Snow
12:53 AM 27.0 °F 20.5 °F 27.0 °F 100% 29.51 in 1.2 mi WNW 5.8 mph - 0.01 in Snow Light Snow
1:53 AM 26.1 °F 18.4 °F 25.0 °F 96% 29.53 in 1.0 mi WNW 6.9 mph - 0.01 in Snow Light Snow
2:15 AM 26.1 °F 17.6 °F 25.0 °F 96% 29.53 in 0.8 mi WNW 8.1 mph - 0.01 in Snow Light Snow
2:24 AM 26.1 °F 17.6 °F 25.0 °F 96% 29.53 in 1.0 mi WNW 8.1 mph - 0.01 in Snow Light Snow
2:38 AM 26.1 °F 17.6 °F 25.0 °F 96% 29.53 in 1.0 mi West 8.1 mph - 0.02 in Snow Light Snow
2:53 AM 26.1 °F 19.4 °F 25.0 °F 96% 29.53 in 1.0 mi WNW 5.8 mph - 0.02 in Snow Light Snow
3:39 AM 26.1 °F 19.4 °F 25.0 °F 96% 29.54 in 2.5 mi WNW 5.8 mph - 0.01 in Snow Light Snow
3:53 AM 26.1 °F 19.4 °F 25.0 °F 96% 29.55 in 1.5 mi West 5.8 mph - 0.02 in Snow Light Snow
4:06 AM 26.1 °F 20.5 °F 25.0 °F 96% 29.55 in 2.0 mi WNW 4.6 mph - 0.00 in Snow Light Snow
4:28 AM 26.1 °F - 25.0 °F 96% 29.55 in 4.0 mi Calm Calm - 0.00 in Snow Light Snow
4:53 AM 25.0 °F - 23.0 °F 92% 29.56 in 10.0 mi Calm Calm - 0.00 in   Overcast
5:32 AM 21.9 °F 17.2 °F 21.0 °F 96% 29.55 in 10.0 mi West 3.5 mph - N/A   Scattered Clouds
5:53 AM 19.9 °F - 19.9 °F 100% 29.56 in 10.0 mi Calm Calm - N/A   Clear
6:53 AM 19.0 °F - 18.0 °F 96% 29.57 in 10.0 mi Calm Calm - N/A   Mostly Cloudy
7:53 AM 21.0 °F - 19.9 °F 96% 29.59 in 10.0 mi Calm Calm - N/A   Mostly Cloudy
8:53 AM 19.9 °F - 19.0 °F 96% 29.59 in 10.0 mi Calm Calm - N/A   Scattered Clouds
9:53 AM 26.1 °F 19.4 °F 19.9 °F 78% 29.60 in 10.0 mi WNW 5.8 mph - N/A   Mostly Cloudy
10:53 AM 27.0 °F 19.5 °F 19.9 °F 75% 29.61 in 10.0 mi West 6.9 mph - N/A   Partly Cloudy
11:53 AM 28.0 °F - 19.0 °F 69% 29.63 in 10.0 mi Calm Calm - N/A   Clear
12:53 PM 28.9 °F 23.9 °F 19.9 °F 69% 29.65 in 10.0 mi WNW 4.6 mph - N/A   Clear
1:53 PM 28.9 °F 21.1 °F 18.0 °F 64% 29.66 in 10.0 mi West 8.1 mph - N/A   Clear
2:53 PM 30.0 °F 21.7 °F 18.0 °F 61% 29.67 in 10.0 mi West 9.2 mph - N/A   Clear
3:53 PM 30.0 °F 23.2 °F 18.0 °F 61% 29.70 in 10.0 mi West 6.9 mph - N/A   Clear
4:53 PM 27.0 °F 16.1 °F 17.1 °F 66% 29.73 in 10.0 mi West 12.7 mph 21.9 mph N/A   Clear
5:53 PM 26.1 °F 16.8 °F 15.1 °F 63% 29.74 in 10.0 mi West 9.2 mph - N/A   Clear
6:53 PM 24.1 °F 17.0 °F 12.0 °F 60% 29.75 in 10.0 mi West 5.8 mph - N/A   Clear
7:53 PM 25.0 °F 20.7 °F 10.9 °F 55% 29.75 in 10.0 mi WSW 3.5 mph - N/A   Mostly Cloudy
8:53 PM 23.0 °F - 14.0 °F 68% 29.75 in 8.0 mi Calm Calm - 0.00 in Snow Light Snow
9:53 PM 23.0 °F 18.4 °F 14.0 °F 68% 29.76 in 10.0 mi WNW 3.5 mph - 0.00 in   Overcast
10:53 PM 21.9 °F - 14.0 °F 72% 29.77 in 10.0 mi Calm Calm - N/A   Mostly Cloudy
11:53 PM 19.0 °F 12.3 °F 12.9 °F 77% 29.77 in 10.0 mi WNW 4.6 mph - N/A   Clear